Location: Bruderhein
(53.8035°N, 112.9265°W)
Time: 06:13:39
(UTC+00:00)

First-Move - Pass Details

Date: 28 April 2024
Orbit: 538 x 600 km, 97.7° (Epoch: 19 May)

Event Time Altitude Azimuth Distance (km) Brightness Sun altitude
Rises 10:32:53 0° 19° (NNE) 2,877 ? -11.4°
Reaches altitude 10° 10:35:12 10° 28° (NNE) 1,970 ? -11.1°
Maximum altitude 10:39:13 38° 97° (E) 932 ? -10.7°
Drops below altitude 10° 10:43:12 10° 166° (SSE) 1,950 ? -10.3°
Sets 10:45:29 0° 175° (S) 2,843 ? -10.0°
